Location: Ammerl�gen
(47.2167°N, 9.6000°E)
Time: 17:08:08
(UTC+00:00)

Cosmos 2219 Rocket - Pass Details

Date: 21 April 2021
Orbit: 826 x 848 km, 71.0° (Epoch: 06 May)

Event Time Altitude Azimuth Distance (km) Brightness Sun altitude
Rises 20:02:29 0° 321° (NW) 3,421 7.0 -16.1°
Reaches altitude 10° 20:05:30 10° 306° (NW) 2,480 6.0 -16.5°
Maximum altitude 20:09:36 21° 260° (W) 1,822 4.4 -17.0°
Drops below altitude 10° 20:13:42 10° 213° (SSW) 2,463 4.5 -17.5°
Sets 20:16:41 0° 198° (SSW) 3,390 5.1 -17.9°
